QPF
0.00 0.00 0.02 0.04 0.03 0.02 0.01 0.02 0.03 0.01 0.01 0.01 0.02 0.02 0.01 0.02 0.02 0.03 0.04 0.05 0.01 0.01 0.01 0.01 0.02 0.01 0.01 0.01 0.01 0.01 0.01 0.02 0.02 0.01 0.01 0.01 0.01 0.02 0.02 0.02 0.02 0.02 0.03
0.00 0.00 0.02 0.03 0.03 0.03 0.02 0.02 0.03 0.01 0.01 0.01 0.01 0.02 0.02 0.03 0.03 0.03 0.04 0.06 0.03 0.02 0.01 0.01 0.01 0.01 0.01 0.01 0.01 0.01 0.01 0.02 0.02 0.02 0.01 0.01 0.01 0.02 0.03 0.03 0.02 0.02 0.02
0.00 0.00 0.01 0.02 0.02 0.03 0.03 0.02 0.03 0.01 0.00 0.00 0.01 0.01 0.03 0.04 0.05 0.04 0.05 0.06 0.04 0.03 0.01 0.01 0.02 0.03 0.01 0.01 0.01 0.01 0.01 0.02 0.01 0.01 0.01 0.01 0.02 0.03 0.04 0.03 0.02 0.03 0.03
0.00 0.00 0.01 0.02 0.02 0.02 0.02 0.03 0.03 0.01 0.00 0.00 0.01 0.01 0.03 0.05 0.06 0.06 0.06 0.07 0.05 0.03 0.02 0.02 0.02 0.02 0.01 0.01 0.01 0.02 0.02 0.01 0.00 0.01 0.02 0.02 0.02 0.03 0.05 0.04 0.03 0.03 0.03
0.00 0.00 0.01 0.02 0.02 0.02 0.02 0.03 0.02 0.02 0.01 0.01 0.01 0.02 0.03 0.06 0.06 0.06 0.07 0.08 0.08 0.04 0.03 0.02 0.01 0.01 0.01 0.01 0.01 0.01 0.01 0.01 0.00 0.00 0.01 0.02 0.03 0.03 0.04 0.06 0.04 0.03 0.02
0.00 0.01 0.01 0.02 0.02 0.02 0.03 0.04 0.03 0.03 0.03 0.02 0.02 0.02 0.03 0.05 0.06 0.07 0.08 0.11 0.11 0.05 0.03 0.03 0.02 0.01 0.01 0.02 0.02 0.01 0.01 0.01 0.00 0.00 0.00 0.01 0.01 0.02 0.03 0.05 0.03 0.05 0.05
0.00 0.01 0.01 0.01 0.02 0.02 0.02 0.03 0.04 0.04 0.05 0.04 0.03 0.03 0.03 0.04 0.05 0.07 0.08 0.09 0.08 0.06 0.04 0.04 0.02 0.02 0.02 0.02 0.02 0.01 0.01 0.00 0.00 0.00 0.00 0.01 0.02 0.02 0.02 0.03 0.02 0.03 0.04
0.00 0.01 0.01 0.01 0.01 0.02 0.02 0.03 0.03 0.04 0.04 0.05 0.04 0.04 0.04 0.04 0.05 0.05 0.05 0.07 0.06 0.05 0.05 0.04 0.03 0.03 0.02 0.02 0.01 0.01 0.01 0.00 0.00 0.00 0.00 0.01 0.01 0.01 0.01 0.01 0.02 0.02 0.02
0.01 0.01 0.01 0.01 0.01 0.02 0.02 0.02 0.02 0.03 0.03 0.04 0.03 0.04 0.03 0.03 0.05 0.05 0.04 0.05 0.06 0.06 0.05 0.04 0.04 0.03 0.02 0.01 0.01 0.01 0.01 0.00 0.00 0.00 0.00 0.01 0.01 0.01 0.01 0.01 0.01 0.02 0.03
0.01 0.02 0.02 0.01 0.01 0.01 0.02 0.02 0.02 0.02 0.03 0.03 0.04 0.04 0.04 0.04 0.05 0.05 0.06 0.06 0.07 0.08 0.06 0.04 0.03 0.03 0.02 0.01 0.01 0.00 0.00 0.00 0.00 0.00 0.01 0.01 0.02 0.02 0.02 0.01 0.01 0.01 0.02
0.01 0.02 0.02 0.01 0.01 0.01 0.02 0.01 0.02 0.01 0.01 0.02 0.03 0.03 0.04 0.04 0.05 0.05 0.06 0.08 0.08 0.10 0.07 0.04 0.03 0.03 0.02 0.01 0.00 0.00 0.00 0.00 0.01 0.01 0.01 0.01 0.02 0.03 0.03 0.02 0.02 0.01 0.01
0.02 0.03 0.03 0.02 0.01 0.01 0.02 0.02 0.02 0.02 0.02 0.02 0.02 0.02 0.03 0.04 0.04 0.04 0.05 0.07 0.09 0.10 0.08 0.05 0.03 0.03 0.02 0.02 0.01 0.01 0.01 0.01 0.01 0.01 0.01 0.01 0.02 0.02 0.02 0.02 0.02 0.02 0.01
0.02 0.02 0.02 0.02 0.01 0.01 0.02 0.02 0.03 0.02 0.02 0.03 0.03 0.02 0.02 0.03 0.04 0.04 0.04 0.05 0.10 0.11 0.10 0.06 0.04 0.03 0.02 0.02 0.02 0.01 0.01 0.02 0.02 0.02 0.02 0.03 0.02 0.01 0.02 0.02 0.02 0.02 0.02
0.03 0.02 0.02 0.02 0.01 0.01 0.01 0.02 0.03 0.02 0.02 0.02 0.03 0.03 0.03 0.03 0.04 0.04 0.04 0.03 0.06 0.08 0.09 0.06 0.04 0.03 0.02 0.02 0.02 0.01 0.01 0.01 0.01 0.02 0.02 0.02 0.02 0.01 0.02 0.03 0.02 0.02 0.02
0.02 0.02 0.02 0.02 0.01 0.01 0.02 0.02 0.02 0.02 0.02 0.03 0.04 0.03 0.03 0.04 0.04 0.04 0.04 0.04 0.04 0.05 0.05 0.05 0.04 0.03 0.02 0.01 0.01 0.01 0.01 0.01 0.01 0.01 0.01 0.01 0.01 0.01 0.02 0.03 0.04 0.03 0.02
0.02 0.02 0.02 0.02 0.01 0.01 0.02 0.02 0.01 0.02 0.02 0.03 0.05 0.07 0.05 0.04 0.04 0.04 0.05 0.05 0.04 0.04 0.04 0.04 0.04 0.03 0.02 0.01 0.01 0.00 0.00 0.00 0.00 0.01 0.01 0.01 0.01 0.01 0.02 0.03 0.03 0.03 0.02
0.03 0.03 0.03 0.02 0.02 0.02 0.02 0.02 0.01 0.01 0.01 0.02 0.03 0.07 0.11 0.07 0.05 0.05 0.05 0.07 0.05 0.04 0.04 0.04 0.04 0.05 0.03 0.02 0.01 0.01 0.00 0.00 0.00 0.00 0.01 0.01 0.01 0.01 0.02 0.01 0.01 0.02 0.02
0.04 0.05 0.05 0.04 0.02 0.02 0.01 0.01 0.01 0.01 0.01 0.01 0.01 0.03 0.08 0.12 0.11 0.10 0.09 0.08 0.07 0.05 0.04 0.04 0.04 0.04 0.04 0.02 0.02 0.01 0.00 0.00 0.00 0.00 0.00 0.00 0.00 0.00 0.01 0.01 0.01 0.01 0.02
0.05 0.07 0.09 0.07 0.04 0.02 0.02 0.01 0.01 0.01 0.01 0.01 0.01 0.01 0.03 0.06 0.09 0.13 0.14 0.11 0.08 0.06 0.04 0.04 0.03 0.04 0.04 0.03 0.02 0.01 0.01 0.00 0.00 0.00 0.00 0.00 0.00 0.00 0.01 0.01 0.01 0.01 0.01
0.06 0.07 0.08 0.09 0.06 0.03 0.02 0.02 0.01 0.01 0.01 0.01 0.01 0.02 0.02 0.03 0.05 0.08 0.13 0.14 0.12 0.09 0.05 0.04 0.03 0.03 0.03 0.03 0.03 0.02 0.01 0.01 0.00 0.00 0.00 0.00 0.00 0.00 0.00 0.01 0.01 0.00 0.00
0.06 0.07 0.08 0.09 0.09 0.06 0.03 0.01 0.01 0.01 0.01 0.01 0.01 0.01 0.02 0.02 0.03 0.04 0.07 0.10 0.13 0.12 0.09 0.05 0.05 0.06 0.05 0.03 0.03 0.03 0.02 0.01 0.01 0.00 0.00 0.00 0.00 0.00 0.00 0.01 0.01 0.01 0.01
0.04 0.06 0.06 0.07 0.09 0.09 0.06 0.02 0.01 0.01 0.01 0.01 0.01 0.01 0.01 0.01 0.02 0.03 0.04 0.05 0.08 0.10 0.11 0.09 0.06 0.05 0.06 0.05 0.04 0.03 0.03 0.02 0.01 0.01 0.00 0.00 0.00 0.00 0.00 0.00 0.01 0.01 0.01
0.03 0.05 0.05 0.05 0.05 0.08 0.09 0.06 0.03 0.01 0.01 0.01 0.01 0.01 0.01 0.01 0.01 0.02 0.02 0.03 0.05 0.06 0.08 0.08 0.07 0.05 0.05 0.05 0.04 0.03 0.03 0.02 0.01 0.01 0.01 0.00 0.00 0.00 0.00 0.00 0.00 0.01 0.01
0.02 0.03 0.04 0.04 0.03 0.04 0.07 0.10 0.07 0.03 0.02 0.01 0.01 0.01 0.01 0.01 0.01 0.01 0.01 0.02 0.03 0.04 0.04 0.05 0.05 0.05 0.05 0.05 0.03 0.02 0.02 0.01 0.01 0.01 0.01 0.00 0.00 0.01 0.00 0.00 0.00 0.00 0.00
0.02 0.02 0.02 0.03 0.04 0.03 0.03 0.06 0.08 0.06 0.03 0.02 0.01 0.01 0.01 0.01 0.01 0.00 0.01 0.01 0.02 0.03 0.03 0.03 0.03 0.04 0.05 0.05 0.03 0.02 0.02 0.02 0.01 0.01 0.01 0.01 0.00 0.00 0.01 0.01 0.01 0.01 0.01
0.03 0.03 0.02 0.02 0.02 0.03 0.03 0.03 0.04 0.05 0.04 0.03 0.03 0.02 0.01 0.01 0.01 0.01 0.01 0.01 0.01 0.01 0.02 0.02 0.03 0.03 0.05 0.05 0.03 0.02 0.01 0.01 0.01 0.01 0.01 0.01 0.01 0.00 0.00 0.00 0.01 0.01 0.01
MSLP
1010.65 1010.73 1010.79 1010.85 1010.95 1011.07 1011.22 1011.37 1011.51 1011.64 1011.75 1011.88 1012.02 1012.21 1012.43 1012.70 1012.98 1013.28 1013.55 1013.79 1014.00 1014.18 1014.34 1014.50 1014.67 1014.85 1015.05 1015.25 1015.46 1015.65 1015.83 1016.00 1016.16 1016.32 1016.49 1016.66 1016.82 1016.98 1017.12 1017.25 1017.37 1017.50 1017.64
1010.68 1010.78 1010.88 1011.00 1011.17 1011.36 1011.56 1011.74 1011.90 1012.01 1012.11 1012.21 1012.33 1012.50 1012.72 1012.99 1013.28 1013.58 1013.86 1014.11 1014.31 1014.48 1014.63 1014.78 1014.93 1015.10 1015.28 1015.46 1015.65 1015.83 1016.00 1016.17 1016.34 1016.51 1016.70 1016.88 1017.06 1017.23 1017.38 1017.51 1017.63 1017.75 1017.89
1010.70 1010.82 1010.97 1011.17 1011.41 1011.69 1011.95 1012.18 1012.36 1012.49 1012.58 1012.66 1012.76 1012.91 1013.12 1013.37 1013.66 1013.94 1014.21 1014.44 1014.63 1014.79 1014.93 1015.06 1015.20 1015.35 1015.51 1015.68 1015.84 1016.00 1016.16 1016.32 1016.49 1016.68 1016.87 1017.07 1017.27 1017.45 1017.61 1017.75 1017.88 1018.01 1018.15
1010.73 1010.88 1011.08 1011.36 1011.69 1012.05 1012.39 1012.68 1012.90 1013.04 1013.13 1013.21 1013.31 1013.44 1013.63 1013.86 1014.12 1014.38 1014.62 1014.82 1014.99 1015.12 1015.24 1015.36 1015.48 1015.62 1015.77 1015.92 1016.06 1016.20 1016.34 1016.49 1016.65 1016.83 1017.03 1017.24 1017.46 1017.66 1017.84 1017.99 1018.14 1018.28 1018.44
1010.79 1010.98 1011.25 1011.61 1012.02 1012.46 1012.87 1013.21 1013.46 1013.63 1013.74 1013.82 1013.92 1014.05 1014.22 1014.43 1014.67 1014.89 1015.09 1015.26 1015.39 1015.50 1015.60 1015.70 1015.81 1015.94 1016.07 1016.20 1016.32 1016.44 1016.55 1016.68 1016.82 1016.99 1017.19 1017.40 1017.63 1017.85 1018.05 1018.23 1018.40 1018.57 1018.75
1010.89 1011.13 1011.48 1011.91 1012.41 1012.91 1013.37 1013.74 1014.03 1014.22 1014.34 1014.44 1014.55 1014.69 1014.86 1015.06 1015.27 1015.47 1015.63 1015.76 1015.86 1015.94 1016.01 1016.10 1016.20 1016.31 1016.42 1016.53 1016.62 1016.71 1016.79 1016.89 1017.00 1017.15 1017.33 1017.55 1017.78 1018.01 1018.24 1018.45 1018.65 1018.86 1019.07
1011.04 1011.35 1011.76 1012.27 1012.82 1013.37 1013.85 1014.25 1014.55 1014.75 1014.90 1015.02 1015.15 1015.31 1015.50 1015.70 1015.90 1016.08 1016.21 1016.31 1016.38 1016.43 1016.48 1016.54 1016.61 1016.70 1016.79 1016.88 1016.94 1016.99 1017.04 1017.09 1017.18 1017.30 1017.46 1017.67 1017.90 1018.15 1018.39 1018.64 1018.88 1019.12 1019.36
1011.23 1011.61 1012.09 1012.66 1013.25 1013.81 1014.31 1014.70 1014.99 1015.21 1015.37 1015.51 1015.68 1015.87 1016.09 1016.31 1016.51 1016.68 1016.80 1016.87 1016.91 1016.93 1016.95 1016.99 1017.04 1017.10 1017.16 1017.21 1017.24 1017.25 1017.25 1017.27 1017.32 1017.41 1017.56 1017.75 1017.98 1018.24 1018.51 1018.78 1019.05 1019.33 1019.61
1011.43 1011.88 1012.44 1013.05 1013.66 1014.23 1014.70 1015.08 1015.36 1015.57 1015.74 1015.92 1016.12 1016.35 1016.60 1016.85 1017.06 1017.23 1017.34 1017.39 1017.41 1017.40 1017.40 1017.40 1017.43 1017.45 1017.48 1017.49 1017.47 1017.44 1017.41 1017.39 1017.41 1017.48 1017.61 1017.79 1018.02 1018.29 1018.57 1018.86 1019.16 1019.47 1019.78
1011.62 1012.15 1012.76 1013.41 1014.03 1014.58 1015.03 1015.38 1015.64 1015.85 1016.03 1016.23 1016.47 1016.74 1017.02 1017.29 1017.53 1017.70 1017.80 1017.84 1017.84 1017.81 1017.78 1017.75 1017.74 1017.73 1017.72 1017.69 1017.63 1017.57 1017.50 1017.45 1017.45 1017.50 1017.62 1017.80 1018.02 1018.29 1018.58 1018.89 1019.21 1019.54 1019.87
1011.79 1012.38 1013.04 1013.70 1014.33 1014.86 1015.29 1015.61 1015.86 1016.06 1016.26 1016.49 1016.75 1017.05 1017.36 1017.65 1017.89 1018.06 1018.16 1018.19 1018.17 1018.12 1018.06 1018.02 1017.97 1017.93 1017.87 1017.80 1017.71 1017.62 1017.52 1017.46 1017.44 1017.49 1017.60 1017.77 1018.00 1018.27 1018.56 1018.88 1019.20 1019.54 1019.90
1011.89 1012.54 1013.23 1013.91 1014.53 1015.05 1015.47 1015.78 1016.03 1016.24 1016.46 1016.71 1016.99 1017.31 1017.63 1017.92 1018.16 1018.32 1018.41 1018.43 1018.40 1018.33 1018.26 1018.19 1018.12 1018.05 1017.96 1017.85 1017.74 1017.61 1017.51 1017.43 1017.41 1017.45 1017.56 1017.74 1017.97 1018.23 1018.52 1018.84 1019.16 1019.51 1019.87
1011.93 1012.61 1013.33 1014.01 1014.63 1015.15 1015.57 1015.90 1016.16 1016.40 1016.65 1016.92 1017.22 1017.54 1017.85 1018.13 1018.35 1018.50 1018.57 1018.58 1018.54 1018.47 1018.39 1018.30 1018.21 1018.12 1018.00 1017.87 1017.73 1017.59 1017.47 1017.39 1017.36 1017.41 1017.53 1017.70 1017.93 1018.19 1018.48 1018.78 1019.10 1019.44 1019.81
1011.88 1012.58 1013.30 1013.99 1014.62 1015.15 1015.59 1015.96 1016.26 1016.55 1016.83 1017.13 1017.44 1017.75 1018.05 1018.30 1018.49 1018.62 1018.68 1018.67 1018.63 1018.57 1018.48 1018.39 1018.29 1018.17 1018.04 1017.89 1017.72 1017.57 1017.44 1017.35 1017.33 1017.37 1017.49 1017.66 1017.88 1018.13 1018.41 1018.71 1019.02 1019.36 1019.73
1011.74 1012.45 1013.16 1013.85 1014.48 1015.05 1015.53 1015.96 1016.33 1016.68 1017.01 1017.33 1017.65 1017.95 1018.22 1018.45 1018.61 1018.71 1018.75 1018.75 1018.71 1018.65 1018.58 1018.49 1018.38 1018.25 1018.09 1017.92 1017.74 1017.56 1017.42 1017.32 1017.29 1017.32 1017.43 1017.59 1017.80 1018.05 1018.31 1018.60 1018.91 1019.25 1019.62
1011.53 1012.22 1012.91 1013.59 1014.24 1014.84 1015.39 1015.89 1016.35 1016.77 1017.17 1017.53 1017.85 1018.14 1018.39 1018.58 1018.71 1018.79 1018.83 1018.84 1018.81 1018.77 1018.70 1018.61 1018.50 1018.36 1018.18 1017.98 1017.77 1017.57 1017.41 1017.29 1017.23 1017.25 1017.33 1017.47 1017.67 1017.89 1018.15 1018.43 1018.74 1019.09 1019.47
1011.28 1011.92 1012.59 1013.25 1013.92 1014.56 1015.18 1015.77 1016.32 1016.83 1017.28 1017.68 1018.02 1018.30 1018.53 1018.69 1018.81 1018.89 1018.93 1018.95 1018.95 1018.92 1018.87 1018.79 1018.67 1018.50 1018.30 1018.07 1017.83 1017.60 1017.39 1017.24 1017.14 1017.12 1017.17 1017.28 1017.45 1017.65 1017.90 1018.18 1018.49 1018.85 1019.25
1011.02 1011.61 1012.23 1012.88 1013.55 1014.24 1014.93 1015.61 1016.24 1016.83 1017.34 1017.78 1018.14 1018.42 1018.63 1018.79 1018.91 1018.99 1019.05 1019.10 1019.12 1019.12 1019.08 1019.00 1018.86 1018.68 1018.45 1018.18 1017.90 1017.62 1017.37 1017.17 1017.03 1016.96 1016.96 1017.02 1017.14 1017.32 1017.55 1017.83 1018.15 1018.53 1018.97
1010.80 1011.33 1011.90 1012.52 1013.20 1013.92 1014.67 1015.41 1016.13 1016.78 1017.35 1017.82 1018.19 1018.48 1018.69 1018.86 1018.99 1019.09 1019.19 1019.26 1019.32 1019.34 1019.31 1019.23 1019.08 1018.87 1018.61 1018.30 1017.98 1017.66 1017.36 1017.11 1016.91 1016.77 1016.71 1016.71 1016.79 1016.92 1017.13 1017.40 1017.73 1018.13 1018.60
1010.66 1011.12 1011.63 1012.22 1012.90 1013.64 1014.43 1015.23 1015.99 1016.69 1017.29 1017.79 1018.18 1018.47 1018.70 1018.88 1019.04 1019.18 1019.32 1019.43 1019.52 1019.57 1019.55 1019.47 1019.31 1019.08 1018.78 1018.45 1018.09 1017.73 1017.39 1017.09 1016.83 1016.63 1016.49 1016.42 1016.43 1016.51 1016.68 1016.93 1017.27 1017.68 1018.17
1010.62 1011.02 1011.48 1012.04 1012.69 1013.44 1014.25 1015.07 1015.86 1016.58 1017.20 1017.70 1018.10 1018.41 1018.65 1018.86 1019.06 1019.24 1019.42 1019.59 1019.71 1019.79 1019.79 1019.70 1019.54 1019.29 1018.99 1018.63 1018.26 1017.88 1017.50 1017.16 1016.84 1016.58 1016.37 1016.22 1016.15 1016.17 1016.28 1016.49 1016.81 1017.22 1017.72
1010.72 1011.05 1011.46 1011.98 1012.61 1013.34 1014.14 1014.96 1015.75 1016.47 1017.08 1017.58 1017.97 1018.29 1018.56 1018.80 1019.03 1019.27 1019.50 1019.71 1019.88 1019.98 1020.00 1019.93 1019.77 1019.53 1019.22 1018.88 1018.50 1018.12 1017.74 1017.37 1017.02 1016.70 1016.41 1016.19 1016.04 1015.97 1016.01 1016.16 1016.43 1016.82 1017.30
1010.92 1011.21 1011.58 1012.05 1012.65 1013.35 1014.12 1014.91 1015.67 1016.35 1016.94 1017.42 1017.81 1018.13 1018.41 1018.68 1018.96 1019.25 1019.53 1019.78 1019.99 1020.13 1020.17 1020.13 1019.99 1019.78 1019.50 1019.19 1018.85 1018.49 1018.12 1017.75 1017.38 1017.02 1016.68 1016.38 1016.14 1015.98 1015.93 1015.99 1016.19 1016.52 1016.96
1011.22 1011.48 1011.80 1012.24 1012.79 1013.44 1014.16 1014.90 1015.60 1016.24 1016.79 1017.24 1017.61 1017.93 1018.23 1018.53 1018.85 1019.17 1019.50 1019.80 1020.05 1020.23 1020.31 1020.31 1020.21 1020.05 1019.82 1019.57 1019.28 1018.97 1018.65 1018.30 1017.94 1017.56 1017.18 1016.81 1016.49 1016.23 1016.07 1016.03 1016.13 1016.36 1016.72
1011.59 1011.81 1012.10 1012.49 1012.98 1013.58 1014.23 1014.90 1015.54 1016.12 1016.62 1017.04 1017.39 1017.71 1018.02 1018.34 1018.69 1019.05 1019.42 1019.76 1020.05 1020.27 1020.40 1020.44 1020.41 1020.31 1020.16 1019.97 1019.77 1019.53 1019.27 1018.97 1018.63 1018.26 1017.85 1017.44 1017.05 1016.71 1016.44 1016.28 1016.25 1016.36 1016.60
1011.98 1012.17 1012.42 1012.76 1013.19 1013.72 1014.29 1014.89 1015.46 1015.98 1016.43 1016.81 1017.14 1017.46 1017.78 1018.12 1018.49 1018.88 1019.28 1019.65 1019.98 1020.24 1020.42 1020.53 1020.56 1020.53 1020.47 1020.37 1020.25 1020.10 1019.91 1019.67 1019.38 1019.03 1018.64 1018.21 1017.77 1017.35 1016.99 1016.72 1016.55 1016.51 1016.61
Thickness
5730 5730 5727 5727 5726 5725 5725 5724 5723 5722 5721 5721 5721 5720 5720 5720 5720 5720 5719 5719 5719 5719 5719 5719 5719 5719 5719 5719 5719 5718 5718 5718 5718 5718 5718 5718 5718 5718 5717 5717 5716 5715 5715
5730 5727 5725 5723 5722 5721 5720 5719 5719 5718 5717 5717 5716 5716 5716 5716 5716 5716 5715 5715 5715 5715 5715 5715 5715 5715 5715 5714 5714 5714 5714 5714 5714 5714 5714 5714 5714 5713 5713 5712 5712 5711 5711
5727 5724 5721 5720 5719 5717 5716 5715 5714 5713 5713 5712 5712 5711 5711 5711 5711 5711 5711 5711 5710 5710 5710 5710 5710 5710 5710 5710 5710 5709 5710 5710 5710 5710 5710 5710 5709 5709 5708 5708 5708 5707 5707
5723 5719 5717 5715 5714 5713 5711 5710 5709 5708 5708 5707 5707 5706 5706 5706 5706 5706 5706 5706 5706 5705 5705 5706 5705 5705 5705 5705 5705 5705 5705 5706 5706 5706 5706 5705 5705 5704 5704 5703 5703 5702 5702
5718 5715 5712 5710 5709 5708 5707 5705 5704 5703 5703 5702 5701 5701 5701 5701 5701 5701 5701 5701 5701 5701 5701 5701 5700 5700 5700 5700 5700 5700 5700 5701 5702 5702 5701 5701 5700 5700 5699 5698 5698 5698 5697
5713 5710 5707 5705 5704 5703 5701 5700 5699 5698 5697 5697 5696 5696 5696 5696 5695 5695 5695 5695 5695 5695 5695 5695 5695 5695 5695 5695 5695 5695 5696 5696 5697 5696 5696 5695 5695 5695 5694 5693 5693 5693 5692
5707 5704 5701 5699 5698 5697 5696 5695 5694 5693 5692 5691 5691 5690 5690 5690 5690 5690 5690 5690 5690 5690 5690 5690 5690 5689 5689 5689 5689 5690 5690 5691 5691 5691 5691 5690 5689 5689 5689 5688 5688 5688 5687
5701 5699 5695 5694 5692 5691 5690 5689 5688 5687 5686 5685 5685 5684 5684 5684 5684 5684 5684 5684 5684 5684 5684 5684 5684 5684 5684 5684 5684 5684 5685 5686 5686 5686 5686 5685 5684 5684 5684 5683 5682 5682 5681
5695 5692 5690 5688 5686 5685 5684 5683 5682 5681 5680 5679 5679 5678 5678 5678 5679 5679 5679 5678 5678 5678 5678 5678 5679 5679 5678 5678 5678 5679 5679 5680 5680 5681 5680 5679 5679 5679 5678 5677 5677 5676 5676
5688 5686 5683 5682 5680 5679 5678 5677 5676 5675 5674 5674 5673 5672 5672 5672 5672 5672 5672 5672 5672 5672 5672 5673 5673 5673 5673 5673 5673 5673 5674 5674 5675 5675 5674 5673 5673 5673 5673 5672 5671 5670 5670
5679 5679 5677 5676 5675 5673 5671 5670 5669 5669 5668 5667 5667 5667 5666 5666 5666 5666 5666 5666 5666 5666 5667 5667 5667 5667 5667 5667 5667 5668 5668 5668 5669 5669 5668 5668 5667 5667 5667 5666 5665 5664 5663
5670 5671 5671 5670 5669 5667 5666 5664 5663 5662 5661 5661 5661 5661 5660 5660 5660 5660 5660 5660 5660 5660 5661 5660 5661 5661 5661 5661 5662 5662 5663 5663 5662 5662 5662 5662 5661 5661 5661 5660 5659 5658 5657
5665 5665 5665 5664 5663 5662 5660 5658 5658 5657 5656 5656 5655 5655 5655 5654 5654 5654 5653 5654 5654 5654 5654 5655 5655 5655 5656 5657 5657 5657 5657 5657 5657 5656 5656 5655 5655 5654 5654 5653 5653 5651 5650
5659 5659 5659 5658 5657 5655 5654 5652 5651 5651 5650 5650 5649 5649 5649 5649 5648 5648 5647 5647 5648 5648 5649 5649 5649 5650 5650 5651 5652 5651 5651 5651 5651 5650 5649 5649 5648 5648 5647 5647 5646 5645 5644
5653 5653 5652 5652 5651 5650 5648 5646 5645 5645 5644 5643 5643 5643 5643 5643 5642 5641 5641 5641 5641 5642 5643 5643 5643 5644 5644 5645 5645 5645 5645 5645 5645 5644 5643 5642 5641 5641 5640 5640 5639 5638 5637
5647 5647 5646 5645 5645 5643 5642 5640 5639 5638 5638 5637 5636 5636 5636 5636 5636 5636 5635 5634 5635 5635 5636 5636 5637 5637 5637 5638 5638 5639 5639 5639 5638 5637 5636 5635 5634 5634 5633 5632 5631 5630 5629
5640 5640 5640 5639 5638 5637 5635 5634 5632 5631 5631 5630 5629 5629 5629 5629 5629 5629 5628 5627 5628 5629 5629 5629 5630 5631 5631 5631 5631 5632 5632 5632 5631 5630 5629 5628 5627 5626 5625 5624 5623 5621 5620
5633 5633 5633 5633 5631 5630 5629 5627 5626 5625 5624 5623 5622 5622 5622 5622 5622 5622 5622 5620 5621 5622 5622 5622 5622 5622 5623 5623 5623 5623 5624 5624 5623 5623 5622 5621 5620 5618 5616 5615 5614 5612 5611
5626 5626 5625 5625 5624 5623 5622 5620 5618 5617 5617 5616 5615 5615 5614 5615 5615 5615 5615 5614 5614 5615 5615 5616 5615 5615 5614 5614 5615 5615 5616 5616 5615 5615 5614 5613 5612 5610 5608 5607 5605 5603 5601
5619 5618 5617 5616 5615 5615 5613 5612 5610 5609 5609 5609 5608 5608 5607 5607 5608 5608 5608 5607 5607 5607 5607 5607 5607 5607 5606 5605 5606 5606 5606 5607 5607 5606 5606 5605 5603 5602 5600 5598 5597 5595 5592
5609 5609 5608 5607 5606 5605 5605 5603 5602 5601 5601 5601 5601 5600 5600 5600 5600 5600 5599 5599 5598 5597 5598 5599 5599 5597 5596 5597 5595 5595 5597 5598 5598 5598 5597 5596 5595 5593 5591 5590 5588 5586 5584
5599 5599 5600 5599 5597 5596 5597 5596 5595 5594 5593 5593 5593 5592 5592 5592 5592 5592 5591 5591 5590 5589 5589 5590 5590 5588 5587 5587 5586 5584 5584 5585 5588 5589 5588 5587 5585 5584 5583 5581 5579 5577 5575
5589 5589 5591 5590 5588 5588 5588 5587 5586 5585 5584 5583 5583 5583 5584 5584 5584 5584 5584 5583 5583 5582 5581 5581 5581 5580 5577 5577 5578 5577 5576 5575 5575 5577 5578 5577 5576 5575 5573 5572 5570 5569 5567
5579 5579 5579 5579 5579 5580 5580 5579 5578 5578 5577 5577 5577 5576 5576 5576 5576 5577 5576 5575 5575 5574 5574 5574 5574 5573 5571 5569 5569 5570 5569 5568 5566 5565 5567 5567 5567 5565 5564 5563 5561 5560 5559
5567 5568 5569 5569 5570 5571 5571 5571 5570 5570 5570 5570 5569 5568 5568 5568 5568 5569 5568 5568 5567 5567 5566 5566 5566 5565 5564 5562 5560 5560 5559 5559 5559 5556 5555 5555 5555 5555 5555 5554 5552 5551 5550
5556 5557 5558 5558 5559 5560 5561 5562 5561 5561 5561 5561 5561 5560 5560 5559 5559 5560 5560 5560 5560 5559 5559 5558 5558 5556 5556 5555 5553 5552 5550 5549 5548 5547 5545 5545 5544 5544 5545 5544 5543 5542 5540